�N����,����,�~����,�C��,���x,�C��,����,���ϕ���,�ő�u�ԕ���,�ő厞����,���˗�,�I�_���x,�n�����x,�ő啗���N��,DTYPE
"18/07/12","00:10",0.0,25.6,82.4,1008.1,328.3,0.8,2.1,340.0,0.00,22.4,25.7,"00:07:04",1
"18/07/12","00:20",0.0,25.5,82.0,1007.8,338.2,1.2,2.5,340.8,0.00,22.2,25.7,"00:16:24",1
"18/07/12","00:30",0.0,25.5,82.0,1008.1,339.3,1.2,2.0,344.7,0.00,22.2,25.5,"00:23:12",1
"18/07/12","00:40",0.0,25.4,82.1,1008.3,331.1,1.5,2.4,335.2,0.00,22.2,25.7,"00:36:48",1
"18/07/12","00:50",0.0,25.6,81.4,1008.1,319.4,1.2,2.5,337.8,0.00,22.2,25.5,"00:40:40",1
"18/07/12","01:00",0.0,25.5,80.7,1007.8,291.3,0.5,1.2,350.0,0.00,22.0,25.7,"00:59:52",1
"18/07/12","01:10",0.0,25.8,79.4,1008.3,325.8,1.6,3.4,336.5,0.00,22.0,25.5,"01:06:08",1
"18/07/12","01:20",0.0,26.0,77.7,1008.1,331.3,1.6,3.5,330.1,0.00,21.8,25.5,"01:10:40",1
"18/07/12","01:30",0.0,26.0,77.2,1008.1,322.3,1.7,2.7,321.2,0.00,21.7,25.5,"01:22:08",1
"18/07/12","01:40",0.0,26.1,76.9,1007.8,330.1,2.0,3.5,323.4,0.00,21.8,25.6,"01:38:32",1
"18/07/12","01:50",0.0,26.1,76.4,1007.8,316.3,1.6,2.9,339.4,0.00,21.7,25.7,"01:42:48",1
"18/07/12","02:00",0.0,26.0,76.8,1007.6,284.7,0.8,2.1,325.4,0.00,21.7,25.3,"01:54:40",1
"18/07/12","02:10",0.0,25.8,78.0,1007.8,269.3,0.8,2.1,249.6,0.00,21.7,25.5,"02:03:04",1
"18/07/12","02:20",0.0,25.8,78.2,1007.4,288.1,0.8,1.9,331.9,0.00,21.8,25.3,"02:10:02",1
"18/07/12","02:30",0.0,25.6,79.2,1007.8,306.8,1.1,1.9,334.4,0.00,21.8,25.3,"02:22:32",1
"18/07/12","02:40",0.0,25.5,79.5,1007.6,317.2,1.1,2.2,347.3,0.00,21.7,25.0,"02:32:40",1
"18/07/12","02:50",0.0,25.4,80.7,1007.6,339.2,1.2,3.2,317.0,0.00,21.9,25.2,"02:46:40",1
"18/07/12","03:00",0.0,25.5,81.1,1007.8,329.7,2.0,4.5,346.3,0.00,22.1,25.3,"02:55:28",1
"18/07/12","03:10",0.0,25.5,81.2,1008.1,330.9,1.7,2.8,338.2,0.00,22.1,25.2,"03:02:08",1
"18/07/12","03:20",0.0,25.5,81.5,1007.8,333.8,2.0,3.1,319.1,0.00,22.1,25.3,"03:17:12",1
"18/07/12","03:30",0.0,25.4,81.9,1007.6,334.8,1.7,3.3,333.6,0.00,22.1,25.1,"03:20:56",1
"18/07/12","03:40",0.0,25.4,82.4,1007.1,335.5,2.0,3.2,332.1,0.00,22.2,25.2,"03:31:20",1
"18/07/12","03:50",0.0,25.4,82.4,1007.4,334.9,2.1,4.1,338.7,0.00,22.2,25.0,"03:49:44",1
"18/07/12","04:00",0.0,25.3,82.5,1007.1,331.0,2.0,3.3,330.6,0.00,22.1,25.0,"03:52:16",1
"18/07/12","04:10",0.0,25.2,83.0,1007.6,336.6,1.6,2.8,315.1,0.00,22.1,25.2,"04:01:20",1
"18/07/12","04:20",0.0,25.1,83.4,1007.4,332.5,1.7,3.2,333.0,0.00,22.1,25.1,"04:16:16",1
"18/07/12","04:30",0.0,25.1,83.6,1007.4,335.5,1.7,3.2,318.5,0.00,22.2,24.6,"04:25:04",1
"18/07/12","04:40",0.0,25.0,84.0,1007.4,336.2,1.6,3.2,339.3,0.00,22.1,24.9,"04:37:20",1
"18/07/12","04:50",0.0,25.0,84.0,1007.6,329.6,2.0,3.3,331.2,0.00,22.1,25.1,"04:46:00",1
"18/07/12","05:00",0.0,24.9,84.2,1007.1,332.1,1.5,2.6,316.5,0.00,22.1,25.2,"04:50:24",1
"18/07/12","05:10",0.0,24.8,84.7,1007.1,345.0,1.2,2.0,5.5,0.00,22.1,25.0,"05:02:32",1
"18/07/12","05:20",0.0,24.9,84.9,1007.4,336.7,1.7,2.7,315.3,0.00,22.2,24.7,"05:13:36",1
"18/07/12","05:30",0.0,25.1,84.3,1007.1,333.0,1.7,3.7,337.0,0.00,22.3,24.8,"05:20:32",1
"18/07/12","05:40",0.0,25.1,84.0,1007.6,336.8,1.3,2.8,321.4,0.00,22.2,24.9,"05:32:48",1
"18/07/12","05:50",0.0,25.0,84.6,1007.6,339.0,1.2,3.3,337.4,0.00,22.3,24.8,"05:49:44",1
"18/07/12","06:00",0.0,25.1,84.6,1007.4,332.9,1.7,3.2,329.1,0.01,22.4,24.7,"05:54:24",1
"18/07/12","06:10",0.0,25.2,84.3,1007.6,334.7,1.7,3.1,339.6,0.01,22.4,24.6,"06:01:52",1
"18/07/12","06:20",0.0,25.3,83.8,1007.4,334.1,1.7,3.2,340.8,0.01,22.4,24.8,"06:16:08",1
"18/07/12","06:30",0.0,25.3,83.8,1007.4,335.3,1.7,2.8,329.9,0.01,22.4,24.8,"06:20:56",1
"18/07/12","06:40",0.0,25.4,84.0,1007.6,332.3,1.3,2.4,334.5,0.02,22.5,24.8,"06:35:28",1
"18/07/12","06:50",0.0,25.3,84.2,1007.1,333.2,1.5,2.6,342.2,0.02,22.5,24.8,"06:44:48",1
"18/07/12","07:00",0.0,25.6,84.3,1007.4,327.2,1.5,2.8,336.0,0.04,22.8,24.7,"06:57:28",1
"18/07/12","07:10",0.0,26.2,84.1,1007.4,312.7,1.1,2.4,336.2,0.08,23.3,24.8,"07:01:44",1
"18/07/12","07:20",0.0,26.3,82.7,1007.1,324.1,0.8,1.8,333.1,0.08,23.2,24.9,"07:14:56",1
"18/07/12","07:30",0.0,27.4,79.0,1007.1,352.2,0.8,2.0,343.4,0.16,23.5,24.8,"07:23:12",1
"18/07/12","07:40",0.0,27.3,77.3,1006.9,2.4,0.8,1.7,347.1,0.14,23.0,25.0,"07:38:16",1
"18/07/12","07:50",0.0,27.6,76.6,1006.9,14.8,0.8,1.9,339.1,0.16,23.2,25.0,"07:41:44",1
"18/07/12","08:00",0.0,28.1,77.6,1006.4,35.8,0.7,1.8,10.0,0.16,23.9,25.0,"07:52:56",1
"18/07/12","08:10",0.0,28.4,74.4,1006.7,26.9,0.7,1.7,33.1,0.21,23.4,25.0,"08:06:08",1
"18/07/12","08:20",0.0,28.3,73.1,1007.1,90.4,0.5,1.1,82.1,0.19,23.1,25.1,"08:11:44",1
"18/07/12","08:30",0.0,28.6,73.2,1007.4,94.3,0.6,1.6,120.6,0.23,23.4,25.2,"08:23:36",1
"18/07/12","08:40",0.0,28.5,73.3,1007.8,83.2,0.7,1.8,8.0,0.19,23.3,25.5,"08:37:28",1
"18/07/12","08:50",0.0,29.0,71.7,1007.6,29.2,0.5,1.2,10.0,0.18,23.4,25.5,"08:48:48",1
"18/07/12","09:00",0.0,29.0,70.8,1007.6,54.2,0.7,1.6,24.4,0.22,23.2,25.4,"08:53:28",1
"18/07/12","09:10",0.0,29.2,70.9,1007.8,63.3,0.3,1.0,16.3,0.20,23.4,25.4,"09:03:04",1
"18/07/12","09:20",0.0,29.2,72.3,1007.8,9.1,0.3,1.3,72.1,0.19,23.7,25.7,"09:13:04",1
"18/07/12","09:30",0.0,29.1,71.0,1008.1,189.3,0.3,0.9,153.5,0.20,23.3,25.7,"09:26:48",1
"18/07/12","09:40",0.0,29.6,71.3,1007.8,122.9,0.2,0.8,117.8,0.22,23.9,25.7,"09:33:20",1
"18/07/12","09:50",0.0,29.5,71.5,1008.6,8.9,0.7,1.6,343.0,0.21,23.8,25.7,"09:49:44",1
"18/07/12","10:00",0.0,29.7,70.8,1008.1,349.3,0.6,1.6,359.0,0.21,23.9,26.0,"09:50:40",1
"18/07/12","10:10",0.0,30.0,71.1,1008.1,30.0,0.7,1.8,353.7,0.20,24.2,26.1,"10:00:16",1
"18/07/12","10:20",0.0,29.9,70.5,1008.1,351.0,0.6,2.4,341.4,0.19,24.0,26.1,"10:19:12",1
"18/07/12","10:30",0.0,29.7,71.4,1007.8,341.6,0.7,2.5,345.2,0.18,24.0,26.1,"10:24:24",1
"18/07/12","10:40",0.0,29.9,71.7,1007.8,259.2,0.6,2.1,341.1,0.18,24.3,26.2,"10:33:20",1
"18/07/12","10:50",0.0,30.0,71.7,1007.8,270.0,0.7,1.7,207.0,0.24,24.4,26.3,"10:49:28",1
"18/07/12","11:00",0.0,30.3,71.5,1007.8,209.0,0.8,2.2,205.9,0.31,24.6,26.3,"10:58:00",1
"18/07/12","11:10",0.0,30.6,69.1,1008.3,306.9,0.8,2.4,341.2,0.29,24.3,26.5,"11:07:12",1
"18/07/12","11:20",0.0,31.3,66.8,1008.3,343.4,0.5,1.6,347.2,0.39,24.4,26.4,"11:13:20",1
"18/07/12","11:30",0.0,31.5,68.0,1008.3,220.2,1.1,2.7,346.4,0.45,24.9,26.4,"11:26:40",1
"18/07/12","11:40",0.0,31.5,68.3,1008.8,232.3,0.7,1.9,225.0,0.38,25.0,26.7,"11:38:32",1
"18/07/12","11:50",0.0,31.8,68.9,1008.6,278.2,0.7,2.2,235.9,0.40,25.4,26.8,"11:41:28",1
"18/07/12","12:00",0.0,31.2,67.0,1008.6,245.3,0.7,2.5,332.3,0.31,24.4,27.0,"11:50:56",1
"18/07/12","12:10",0.0,30.7,67.6,1008.3,295.3,0.7,1.9,298.1,0.24,24.1,27.0,"12:02:48",1
"18/07/12","12:20",0.0,30.7,67.4,1008.1,243.5,1.0,3.3,345.7,0.25,24.0,27.2,"12:13:44",1
"18/07/12","12:30",0.0,31.1,66.4,1007.6,239.4,1.2,2.9,212.1,0.38,24.1,27.1,"12:24:00",1
"18/07/12","12:40",0.0,31.2,66.2,1008.1,299.3,0.8,2.1,273.1,0.30,24.2,27.2,"12:37:36",1
"18/07/12","12:50",0.0,31.7,63.6,1007.8,277.9,1.0,2.1,218.2,0.38,24.0,27.4,"12:47:12",1
"18/07/12","13:00",0.0,31.7,64.4,1007.6,233.6,1.2,3.2,239.0,0.36,24.2,27.2,"12:51:28",1
"18/07/12","13:10",0.0,31.4,65.4,1007.1,230.9,1.1,3.4,223.8,0.29,24.2,27.7,"13:08:00",1
"18/07/12","13:20",0.0,31.7,65.4,1006.9,255.8,1.1,3.3,227.6,0.36,24.5,27.5,"13:11:12",1
"18/07/12","13:30",0.0,31.9,64.2,1006.9,279.5,1.2,3.3,234.4,0.39,24.3,27.5,"13:21:20",1
"18/07/12","13:40",0.0,31.6,63.5,1007.1,278.6,1.0,3.2,313.5,0.36,23.9,27.6,"13:30:40",1
"18/07/12","13:50",0.0,31.3,63.6,1007.1,267.8,1.1,3.4,224.0,0.31,23.6,27.8,"13:48:56",1
"18/07/12","14:00",0.0,31.0,64.3,1007.1,274.6,0.7,2.5,304.1,0.22,23.5,27.7,"13:59:36",1
"18/07/12","14:10",0.0,30.9,65.8,1006.7,281.6,1.0,2.9,314.9,0.19,23.8,27.7,"14:08:32",1
"18/07/12","14:20",0.0,30.7,66.2,1006.4,298.3,1.3,2.8,326.4,0.18,23.7,27.8,"14:18:24",1
"18/07/12","14:30",0.0,30.5,66.8,1006.4,321.5,1.7,3.2,358.5,0.15,23.7,27.7,"14:25:52",1
"18/07/12","14:40",0.0,30.3,68.0,1006.0,281.7,1.3,3.5,335.4,0.12,23.8,27.8,"14:36:48",1
"18/07/12","14:50",0.0,30.0,69.3,1006.0,279.6,1.0,2.4,300.7,0.10,23.8,27.8,"14:44:56",1
"18/07/12","15:00",0.0,29.9,69.8,1005.5,266.6,1.1,2.8,283.1,0.10,23.8,27.6,"14:52:40",1
"18/07/12","15:10",0.0,30.2,68.8,1005.2,280.3,1.0,2.2,243.8,0.16,23.9,27.8,"15:03:04",1
"18/07/12","15:20",0.0,30.3,69.4,1005.5,275.2,0.7,2.8,349.3,0.16,24.1,27.7,"15:19:12",1
"18/07/12","15:30",0.0,30.3,69.6,1005.2,285.1,1.0,2.6,356.6,0.15,24.2,27.5,"15:28:48",1
"18/07/12","15:40",0.0,30.4,70.4,1005.2,294.4,0.7,1.7,328.0,0.13,24.4,27.6,"15:39:12",1
"18/07/12","15:50",0.0,30.2,70.2,1005.5,295.0,0.8,2.5,319.1,0.13,24.2,27.7,"15:48:08",1
"18/07/12","16:00",0.0,30.4,69.9,1005.5,291.6,0.6,1.7,239.7,0.14,24.3,27.4,"15:53:52",1
"18/07/12","16:10",0.0,30.5,68.1,1005.5,331.9,1.1,3.5,346.6,0.15,24.0,27.5,"16:09:00",1
"18/07/12","16:20",0.0,30.7,67.6,1005.5,343.5,1.2,2.7,346.8,0.12,24.1,27.5,"16:17:12",1
"18/07/12","16:30",0.0,31.0,66.3,1005.7,313.9,0.8,1.9,334.7,0.16,24.0,27.6,"16:27:20",1
"18/07/12","16:40",0.0,30.4,67.3,1005.5,311.3,1.2,3.4,349.7,0.09,23.7,27.5,"16:35:44",1
"18/07/12","16:50",0.0,30.4,68.4,1005.5,320.5,0.7,2.2,335.5,0.08,24.0,27.4,"16:49:44",1
"18/07/12","17:00",0.0,30.4,67.0,1005.0,292.6,0.6,1.9,327.5,0.05,23.6,27.5,"16:50:48",1
"18/07/12","17:10",0.0,30.3,67.5,1004.8,295.9,0.6,1.9,303.9,0.04,23.6,27.5,"17:07:20",1
"18/07/12","17:20",0.0,29.9,68.3,1005.0,292.8,0.8,2.0,332.3,0.03,23.5,27.5,"17:15:52",1
"18/07/12","17:30",0.0,29.6,69.3,1004.5,338.7,1.5,4.2,338.8,0.01,23.4,27.2,"17:22:24",1
"18/07/12","17:40",0.0,29.3,69.9,1004.5,340.1,1.6,2.8,345.4,0.00,23.3,27.4,"17:38:48",1
"18/07/12","17:50",0.0,29.2,70.9,1004.5,336.5,1.1,2.9,347.1,0.00,23.4,27.3,"17:49:52",1
"18/07/12","18:00",0.0,29.1,72.8,1004.5,347.3,1.1,1.8,334.5,0.00,23.8,27.3,"17:50:16",1
"18/07/12","18:10",0.0,28.8,72.5,1004.8,338.4,1.1,2.1,345.3,0.00,23.4,27.0,"18:08:00",1
"18/07/12","18:20",0.0,28.7,72.9,1005.2,333.0,1.0,1.8,329.8,0.00,23.4,27.1,"18:10:24",1
"18/07/12","18:30",0.0,28.5,74.0,1005.2,322.4,1.0,1.8,342.0,0.00,23.5,27.0,"18:21:20",1
"18/07/12","18:40",0.0,28.4,74.0,1005.5,311.4,0.8,2.0,338.9,0.00,23.4,26.8,"18:31:04",1
"18/07/12","18:50",0.0,28.1,74.8,1006.0,24.5,0.5,1.7,332.7,0.00,23.2,27.0,"18:41:04",1
"18/07/12","19:00",0.0,27.7,77.2,1005.5,338.1,0.8,1.3,340.8,0.00,23.4,26.9,"18:53:12",1
"18/07/12","19:10",0.0,27.3,79.7,1005.2,329.2,0.7,1.1,345.4,0.00,23.5,26.9,"19:05:36",1
"18/07/12","19:20",0.0,27.1,80.9,1005.2,327.1,0.7,1.8,333.2,0.00,23.6,26.7,"19:15:12",1
"18/07/12","19:30",0.0,27.0,80.5,1005.5,350.1,0.7,1.2,6.6,0.00,23.4,26.9,"19:22:56",1
"18/07/12","19:40",0.0,26.7,81.4,1005.5,317.5,1.0,1.6,329.5,0.00,23.3,26.6,"19:37:20",1
"18/07/12","19:50",0.0,26.6,82.4,1005.7,333.2,0.8,1.4,344.4,0.00,23.4,26.4,"19:45:04",1
"18/07/12","20:00",0.0,26.5,82.8,1005.7,332.1,1.0,1.6,5.0,0.00,23.4,26.7,"19:51:52",1
"18/07/12","20:10",0.0,26.4,83.8,1006.0,331.4,0.7,1.4,331.9,0.00,23.5,26.4,"20:09:44",1
"18/07/12","20:20",0.0,26.2,84.4,1005.7,340.0,1.0,1.7,339.7,0.00,23.4,26.3,"20:14:32",1
"18/07/12","20:30",0.0,26.1,84.6,1006.2,318.8,0.8,1.2,338.1,0.00,23.3,26.2,"20:21:12",1
"18/07/12","20:40",0.0,25.9,84.9,1006.2,299.9,0.5,1.0,309.3,0.00,23.2,26.4,"20:34:00",1
"18/07/12","20:50",0.0,25.7,84.9,1006.0,311.6,0.7,1.3,307.0,0.00,23.0,26.3,"20:43:36",1
"18/07/12","21:00",0.0,25.8,84.9,1006.4,302.0,1.1,2.1,331.3,0.00,23.1,26.1,"20:52:00",1
"18/07/12","21:10",0.0,25.7,84.9,1006.4,290.1,0.6,1.2,319.1,0.00,23.0,26.2,"21:00:16",1
"18/07/12","21:20",0.0,25.6,84.9,1006.7,306.1,0.8,1.8,322.9,0.00,22.9,26.3,"21:17:28",1
"18/07/12","21:30",0.0,25.7,84.5,1006.4,328.6,1.1,1.8,334.7,0.00,22.9,26.1,"21:28:56",1
"18/07/12","21:40",0.0,25.5,84.5,1006.2,336.5,1.0,1.7,339.7,0.00,22.7,26.1,"21:31:12",1
"18/07/12","21:50",0.0,25.2,85.0,1006.4,312.9,0.8,1.4,326.1,0.00,22.5,26.3,"21:43:28",1
"18/07/12","22:00",0.0,25.1,85.6,1006.4,279.1,0.7,1.2,319.2,0.00,22.6,25.7,"21:56:48",1
"18/07/12","22:10",0.0,25.0,85.7,1006.7,294.3,0.8,1.3,245.4,0.00,22.5,26.0,"22:09:12",1
"18/07/12","22:20",0.0,25.0,85.6,1006.2,300.1,0.6,1.2,326.3,0.00,22.5,26.0,"22:19:28",1
"18/07/12","22:30",0.0,25.0,85.2,1006.4,285.4,0.6,1.0,296.8,0.00,22.4,25.8,"22:26:32",1
"18/07/12","22:40",0.0,24.9,85.4,1006.4,298.2,0.7,1.4,333.2,0.00,22.3,25.6,"22:38:32",1
"18/07/12","22:50",0.0,24.9,85.4,1006.4,272.1,0.6,1.1,242.6,0.00,22.3,25.6,"22:43:36",1
"18/07/12","23:00",0.0,24.9,85.3,1006.4,302.1,0.7,1.3,322.0,0.00,22.3,25.7,"22:54:32",1
"18/07/12","23:10",0.0,24.9,84.8,1006.4,311.9,1.1,1.9,340.8,0.00,22.2,25.6,"23:06:24",1
"18/07/12","23:20",0.0,25.1,83.9,1006.4,330.3,1.7,2.9,345.9,0.00,22.2,25.6,"23:14:16",1
"18/07/12","23:30",0.0,25.3,82.8,1006.7,336.2,1.2,2.8,341.2,0.00,22.2,25.7,"23:22:16",1
"18/07/12","23:40",0.0,25.2,82.6,1006.4,334.3,1.3,2.6,342.7,0.00,22.1,25.5,"23:38:24",1
"18/07/12","23:50",0.0,25.0,83.0,1006.4,309.0,1.1,2.1,324.3,0.00,22.0,25.4,"23:41:12",1
"18/07/12","24:00",0.0,24.8,84.1,1006.4,321.0,1.0,1.7,322.6,0.00,22.0,25.4,"23:51:12",1
